Location: Boston
(42.3580°N, 71.0600°W)
Time: 07:28:04
(UTC-05:00)

Tiangong 2 - Pass Details

Date: 16 October 2017
Orbit: 386 x 390 km, 42.8° (Epoch: 11 December)

Event Time Altitude Azimuth Distance (km) Brightness Sun altitude
Exits shadow 06:15:56 12° 276° (W) 1,298 3.0 -8.6°
Maximum altitude 06:18:47 60° 197° (SSW) 450 1.3 -8.1°
Drops below altitude 10° 06:21:57 10° 116° (ESE) 1,420 5.3 -7.5°
Sets 06:24:03 0° 113° (ESE) 2,275 6.7 -7.1°
